ASIASAT 7 (37933 NORAD) Tracking and Keplerian Element Data

This shows tracking and keplerian element data for the satellite.

Feedback or suggestion? Click here.




ElementValue
Catalog37933
NameASIASAT 7
Epoch Orbit3986
Epoch Day34.70451206
Epoch Year2025
RAAN235.8314
Inclination0.0409
Eccentricity0.0001668
Argument of Perigee46.3158
Mean Anonmoly211.0817
Mean Motion1.00272526
Decay Rate-3.3E-06
L11 37933U 11069A 25034.70451206 -.00000330 00000+0 00000+0 0 9996
L22 37933 0.0409 235.8314 0001668 46.3158 211.0817 1.00272526 39865



Live tracking and technical data element details for ASIASAT 7 (NORAD 37933). ASIASAT 7 can be tracked NOW for your location showing map with azimuth and elevation plus other details from your city location.







IsCatalogInMostPopularTable: catalog: 37933, numindb: 509
Update: records affected: 1



GetName: 37933 ASIASAT 7

Hit Count: updated at: Sat, 24 May 2025 15:18:34 GMT